EST,Max TemperatureF,Mean TemperatureF,Min TemperatureF,Max Dew PointF,MeanDew PointF,Min DewpointF,Max Humidity, Mean Humidity, Min Humidity, Max Sea Level PressureIn, Mean Sea Level PressureIn, Min Sea Level PressureIn, Max VisibilityMiles, Mean VisibilityMiles, Min VisibilityMiles, Max Wind SpeedMPH, Mean Wind SpeedMPH, Max Gust SpeedMPH,PrecipitationIn, CloudCover, Events, WindDirDegrees
2007-1-1,44,38,30,39,32,24,93,81,70,30.26,29.87,29.63,10,9,4,18,14,28,0.00,7,Rain-Snow,265
2007-1-2,42,34,27,30,27,24,92,76,51,30.43,30.34,30.25,10,10,8,13,6,20,0.00,0,,222
2007-1-3,48,40,32,34,30,26,89,73,41,30.24,30.13,30.00,10,8,5,17,11,21,0.00,0,,200
2007-1-4,48,42,37,43,39,33,93,85,61,29.99,29.81,29.65,10,6,2,18,14,26,1.45,7,Rain,189
2007-1-5,50,47,44,45,44,43,100,87,77,29.74,29.68,29.63,10,8,1,14,8,16,0.09,8,Rain,231
2007-1-6,46,38,30,45,35,28,100,85,65,30.20,29.88,29.63,10,6,2,17,8,22,0.01,6,Rain,280
2007-1-7,36,32,28,32,30,26,96,91,81,30.23,29.99,29.69,5,2,1,10,3,,0.12,6,Snow,158
2007-1-8,35,32,30,32,26,21,96,79,59,29.85,29.75,29.63,10,5,0,20,12,29,0.03,7,Fog-Snow,254
2007-1-9,30,27,24,24,20,16,82,73,59,30.21,30.00,29.78,10,7,2,23,10,32,0.00,7,Snow,296
2007-1-10,30,27,24,18,17,15,71,64,56,30.40,30.30,30.21,10,10,8,15,10,23,0.00,5,Snow,251
2007-1-11,44,37,30,36,25,17,87,60,49,30.21,30.06,29.98,10,10,4,23,16,32,0.00,4,Rain,192
2007-1-12,48,44,39,47,42,37,100,91,85,30.21,30.11,29.98,10,5,0,15,9,,0.11,8,Fog-Rain,223
2007-1-13,37,32,28,37,28,24,100,87,82,30.38,30.30,30.20,10,8,2,14,9,18,0.01,8,Rain,38
2007-1-14,30,30,30,29,27,26,93,89,85,30.32,30.24,30.08,10,6,2,10,4,16,0.28,8,Rain-Snow,43
2007-1-15,33,29,24,32,28,20,93,90,84,30.16,29.94,29.86,10,5,1,13,8,18,0.44,8,Rain-Snow,11
2007-1-16,24,20,16,20,15,10,89,78,62,30.66,30.42,30.14,10,10,9,10,6,,0.00,5,Snow,345
2007-1-17,25,20,16,19,17,12,85,81,72,30.70,30.61,30.42,10,10,8,15,6,,0.00,4,Snow,206
2007-1-18,30,26,21,28,24,17,93,84,78,30.40,30.09,29.94,10,6,1,15,9,21,0.01,8,Snow,216
2007-1-19,30,26,23,27,21,14,93,78,65,30.26,30.09,29.95,10,5,1,22,12,28,0.01,8,Snow,283
2007-1-20,25,22,19,17,15,13,89,75,66,30.44,30.37,30.27,10,9,6,8,4,,0.00,6,Snow,60
2007-1-21,27,24,21,23,21,14,93,83,74,30.34,30.05,29.92,10,4,0,10,6,,0.05,8,Fog-Rain-Snow,114
2007-1-22,30,26,23,25,22,19,92,82,69,30.03,29.98,29.93,10,6,2,13,5,,0.00,8,Snow,308
2007-1-23,28,27,26,23,22,19,86,81,74,30.02,29.91,29.84,10,5,2,16,11,26,0.00,8,Snow,251
2007-1-24,30,27,24,25,22,18,88,82,69,30.09,30.04,30.01,10,3,1,12,5,,0.01,8,Snow,269
2007-1-25,24,20,15,19,13,8,86,74,58,30.25,30.17,30.05,10,6,1,21,10,26,0.00,7,Snow,330
2007-1-26,41,27,15,31,20,8,81,74,65,30.19,29.87,29.58,10,9,5,23,11,33,0.00,5,Snow,205
2007-1-27,39,30,21,31,26,17,87,78,67,29.85,29.71,29.56,10,6,1,15,12,26,0.01,8,Snow,285
2007-1-28,26,14,3,25,16,0,93,84,74,30.09,29.83,29.75,10,3,0,17,4,,0.10,7,Fog-Snow,277
2007-1-29,21,15,9,18,11,5,92,83,68,30.09,29.95,29.86,10,4,1,14,7,23,0.00,7,Snow,203
2007-1-30,21,16,10,18,14,8,93,83,68,30.13,29.93,29.81,10,3,0,22,10,29,0.01,7,Fog-Snow,247
2007-1-31,19,14,8,14,7,-7,86,72,37,30.19,30.07,29.86,10,8,2,15,9,,0.00,5,Snow,217